This is the latest recevied weather packets stored in our database for station/object KA1JKB. If no packets are shown the sender has not sent any weather packets the latest 10 day(s).
| Time | Temp. | Humidity | Pressure | Rain* | Wind** | Luminosity | Snow |
|---|---|---|---|---|---|---|---|
| 1787701783 | 22.22° C | 80% | 1015.9 hPa | 0 mm | - | 24 W/m² | - |
| 1787701483 | 22.78° C | 79% | 1015.8 hPa | 0 mm | - | 26 W/m² | - |
| 1787701177 | 22.78° C | 78% | 1015.6 hPa | 0 mm | - | 30 W/m² | - |
| 1787700874 | 22.78° C | 76% | 1015.6 hPa | 0 mm | - | 34 W/m² | - |
| 1787700569 | 23.33° C | 75% | 1015.6 hPa | 0 mm | - | 38 W/m² | - |
| 1787700265 | 23.89° C | 72% | 1015.7 hPa | 0 mm | - | 56 W/m² | - |
| 1787699961 | 23.89° C | 71% | 1015.8 hPa | 0 mm | - | 42 W/m² | - |
| 1787699656 | 25° C | 70% | 1015.5 hPa | 0 mm | - | 42 W/m² | - |
| 1787699352 | 25° C | 69% | 1015.5 hPa | 0 mm | - | 90 W/m² | - |
| 1787699048 | 24.44° C | 68% | 1015.8 hPa | 0 mm | - | 59 W/m² | - |
| 1787698743 | 24.44° C | 66% | 1015.4 hPa | 0 mm | - | 79 W/m² | - |
| 1787698439 | 24.44° C | 68% | 1015.5 hPa | 0 mm | - | 82 W/m² | - |
| 1787698134 | 24.44° C | 66% | 1015.7 hPa | 0 mm | - | 147 W/m² | - |
| 1787697829 | 24.44° C | 66% | 1015.7 hPa | 0 mm | - | 209 W/m² | - |
| 1787697524 | 24.44° C | 67% | 1015.8 hPa | 0 mm | - | 157 W/m² | - |
| 1787697220 | 23.89° C | 69% | 1015.6 hPa | 0 mm | - | 101 W/m² | - |
| 1787696915 | 23.89° C | 70% | 1015.5 hPa | 0 mm | - | 166 W/m² | - |
| 1787696611 | 24.44° C | 68% | 1015.6 hPa | 0 mm | - | 105 W/m² | - |
| 1787696306 | 24.44° C | 65% | 1015.5 hPa | 0 mm | - | 306 W/m² | - |
| 1787696001 | 25° C | 65% | 1015.8 hPa | 0 mm | - | 318 W/m² | - |
| 1787695701 | 25° C | 65% | 1015.7 hPa | 0 mm | - | 342 W/m² | - |
| 1787695398 | 24.44° C | 66% | 1015.6 hPa | 0 mm | - | 375 W/m² | - |
| 1787695098 | 24.44° C | 65% | 1015.8 hPa | 0 mm | - | 390 W/m² | - |
| 1787694796 | 24.44° C | 68% | 1015.7 hPa | 0 mm | - | 367 W/m² | - |
| 1787694493 | 24.44° C | 69% | 1015.7 hPa | 0 mm | - | 117 W/m² | - |
* Rain latest hour (hover to see other rain measurements)
** Current wind speed in m/s (hover to see current wind gust speed)